Location: Newark
(21.1200°N, 73.4000°E)
Time: 12:52:41
(UTC+00:00)

Courier 1B Rocket - Pass Details

Date: 25 January 2020
Orbit: 920 x 1202 km, 28.2° (Epoch: 22 February)

Event Time Altitude Azimuth Distance (km) Brightness Sun altitude
Rises 05:23:26 0° 245° (WSW) 4,039 8.1 40.9°
Reaches altitude 10° 05:26:20 10° 244° (WSW) 3,049 7.6 41.3°
Maximum altitude 05:33:53 82° 158° (SSE) 1,114 6.3 42.3°
Drops below altitude 10° 05:40:55 10° 71° (ENE) 2,849 7.7 43.2°
Sets 05:43:32 0° 71° (ENE) 3,761 8.2 43.6°
